Regional Weather Roundup
Issued by NWS

Home | Current Version | Previous Version | Graphics & Text | Print | Product List | Glossary On
Versions: 1 2 3 4 5 6 7 8 9 10 11 12 13 14 15 16 17 18 19 20 21 22 23 24 25 26 27 28 29 30 31 32 33 34 35 36 37 38 39 40 41 42 43 44 45 46 47 48
000
ASUS45 KCYS 222210
RWRWY

WYOMING REGIONAL WEATHER ROUNDUP
NATIONAL WEATHER SERVICE CHEYENNE WY
400 PM MDT WED MAR 22 2017

NOTE:  "FAIR" INDICATES FEW OR NO CLOUDS BELOW 12,000 FEET
WITH NO SIGNIFICANT WEATHER AND/OR OBSTRUCTIONS TO VISIBILITY.

WYZ001-222300-
YELLOWSTONE NATIONAL PARK

CITY           SKY/WX    TMP DP  RH WIND       PRES   REMARKS
LK YELLOWSTONE   N/A     42  26  53 CALM      29.92F
W YELLOWSTONE  NOT AVBL

$$
WYZ002>013-054>058-071-098>099-222300-
NORTHERN WYOMING

CITY           SKY/WX    TMP DP  RH WIND       PRES   REMARKS
JACKSON        PTSUNNY   39  39 100 S8          N/A  WCI  34
CODY           FAIR      61  36  39 SE13      29.77F
GREYBULL       FAIR      65  34  31 CALM      29.74F
WORLAND        FAIR      68  36  30 S12       29.74F
SHERIDAN       FAIR      59  40  49 CALM      29.80S
BUFFALO        PTSUNNY   58  38  47 N7        29.83S
GILLETTE       FAIR      63  39  41 NE12      29.79F
HULETT         FAIR      63  36  36 N8        29.81S
NEWCASTLE      FAIR      68  32  26 N12G18    29.77F

$$
WYZ014>020-022>026-101>103-222300-
CENTRAL WYOMING

CITY           SKY/WX    TMP DP  RH WIND       PRES   REMARKS
BIG PINEY      FAIR      46  38  73 E5        29.91F
PINEDALE       MOCLDY    43  34  70 CALM      29.93F
DUBOIS         FAIR      52  27  37 SW17      29.86F
LANDER         CLOUDY    58  37  45 E7        29.82F
RIVERTON       FAIR      61  34  36 S8        29.82F
CASPER         PTSUNNY   64  32  30 W17G25    29.83S
DOUGLAS        FAIR      70  35  27 S10       29.81F

$$
WYZ021-027>030-104>119-222300-
SOUTHERN WYOMING

CITY           SKY/WX    TMP DP  RH WIND       PRES   REMARKS
EVANSTON       LGT RAIN  44  36  73 N12       29.90F
KEMMERER       DRIZZLE   39  36  87 W18G28    29.92F WCI  30
FORT BRIDGER   FAIR      52  37  56 NW17G39   29.93R
ROCK SPRINGS   FAIR      59  35  40 NE9       29.88F
DIXON            N/A     69  22  16 SW21      29.91F
RAWLINS        PTSUNNY   62  21  20 SW22G29   29.89F
SARATOGA       FAIR      63  23  22 SW20G32   29.93F
LARAMIE        FAIR      65  17  15 SW38G51   29.89F
CHEYENNE       FAIR      67  29  24 S15       29.89F
TORRINGTON     FAIR      69  31  24 E13       29.81S
PINE BLUFFS    FAIR      68  32  26 S16       29.87F

$$



USA.gov is the U.S. government's official web portal to all federal, state and local government web resources and services.